Theta_e
293 296 296 297 296 312 311 311 305 297 303 296 300 309 314 314 309 313 314 306 313 315 315 316 317 319 320 322 324 324 324 323 321 321 322 322 321 321
293 295 295 295 296 309 311 312 309 307 302 297 297 302 312 311 305 314 313 303 308 311 312 313 315 316 318 319 321 321 322 322 321 320 321 320 320 319
293 294 294 296 296 306 311 310 309 309 305 291 295 305 307 309 306 313 309 313 311 307 310 311 312 313 315 316 317 318 319 319 319 319 318 318 317 316
290 291 293 297 294 307 309 309 308 309 305 295 296 299 305 306 309 310 307 311 311 305 309 310 310 310 311 312 313 313 313 314 314 314 315 315 315 315
290 289 289 294 293 305 307 308 309 308 305 300 298 300 294 303 303 297 300 301 303 302 308 307 308 309 310 310 310 309 307 308 308 308 310 311 312 313
290 290 289 291 294 294 306 305 305 304 301 301 300 299 298 296 303 299 295 296 296 295 302 305 306 304 308 309 307 303 304 305 307 307 306 307 309 310
289 290 290 289 292 292 305 304 303 299 300 299 298 299 298 293 299 301 301 295 290 293 301 297 304 305 307 305 301 300 304 304 305 304 304 305 305 306
284 288 290 288 291 294 302 303 304 296 296 297 297 296 295 296 299 298 296 294 292 289 296 291 302 304 305 308 304 304 304 303 303 303 303 303 303 303
283 287 287 289 288 291 301 301 302 300 301 301 295 299 295 298 299 295 295 296 296 292 297 295 289 301 301 300 302 302 303 302 302 302 302 302 302 301
282 284 287 287 288 289 300 302 302 300 301 303 300 301 301 299 298 298 293 289 289 293 291 292 286 290 287 288 300 302 302 301 301 301 301 301 301 300
282 284 286 287 289 291 295 299 299 299 301 301 301 301 300 299 299 294 290 291 286 291 289 290 288 284 285 287 290 301 301 301 300 300 300 300 300 298
280 286 287 288 290 291 294 299 295 297 296 292 296 298 298 297 296 297 294 293 291 286 293 286 289 286 285 284 288 292 297 299 299 300 299 299 299 296
281 286 287 290 291 292 294 298 298 296 294 293 294 294 295 294 296 297 296 297 293 282 290 289 288 289 284 280 286 288 294 295 296 297 299 299 298 297
284 287 287 290 292 293 295 299 298 295 295 293 293 293 293 293 295 296 294 298 299 296 291 295 288 291 280 277 284 287 289 291 294 294 294 297 298 297
286 288 289 290 293 295 296 297 292 295 294 292 292 293 295 295 294 293 291 289 288 286 290 294 292 291 291 283 278 283 288 288 289 291 292 292 293 294
286 287 288 291 292 296 295 296 296 297 295 294 294 295 294 292 291 292 290 290 290 280 282 292 288 291 290 290 284 282 290 287 287 289 290 290 291 292
286 287 287 289 291 295 296 296 296 296 294 295 295 291 290 291 291 291 291 289 290 286 283 288 286 288 288 289 285 286 286 288 285 288 287 286 288 289
285 286 287 290 292 294 294 294 295 294 295 295 294 290 290 289 289 289 289 288 289 288 286 286 283 280 279 283 288 287 285 286 285 286 287 285 285 287
285 287 289 291 293 294 294 293 293 294 295 295 293 291 291 290 289 288 288 287 288 288 287 287 286 286 284 283 280 289 285 285 283 284 286 285 285 286
267 268 281 290 292 293 293 293 293 293 294 294 293 291 291 290 288 288 288 287 287 288 287 287 286 287 286 286 286 279 287 285 284 284 284 285 286 285
262 264 266 267 271 286 293 293 293 292 293 292 292 290 290 290 289 289 288 288 288 288 286 286 287 289 289 287 284 277 283 287 287 285 285 283 283 283
260 263 265 265 266 267 272 289 291 290 291 291 291 290 290 291 290 289 288 288 288 288 289 289 288 287 287 287 287 287 277 282 285 286 287 286 280 279
258 262 263 265 265 265 267 271 285 290 290 290 290 290 290 289 291 290 289 289 289 288 289 288 286 286 286 286 287 287 276 278 280 280 279 286 285 281
Wind_Speed
13 10 7 11 18 15 14 18 18 11 14 4 4 9 14 14 18 18 18 22 24 23 21 18 18 17 16 17 21 20 20 19 17 18 18 18 18 17
6 11 9 12 16 18 16 18 18 18 14 4 3 7 13 12 17 18 18 20 23 21 20 19 18 16 18 16 18 19 21 21 20 20 19 21 21 20
10 13 11 15 13 18 16 17 16 14 17 2 3 10 13 17 14 14 13 16 13 20 20 19 17 18 19 18 17 18 22 22 21 21 21 22 22 22
10 12 13 9 20 16 14 21 18 18 16 15 6 8 13 18 19 17 12 12 13 17 22 21 20 18 17 17 17 17 19 20 21 22 22 23 23 22
10 10 12 12 17 10 14 17 16 14 14 14 11 10 4 10 14 7 10 7 7 16 21 20 20 20 18 18 20 19 19 20 18 18 18 21 23 22
12 10 10 14 13 17 18 18 16 14 15 15 14 15 13 9 15 15 9 5 7 4 9 13 17 17 19 21 22 20 20 21 20 20 17 17 19 21
15 11 10 13 21 29 15 17 18 16 16 15 13 13 13 10 17 12 13 8 2 3 8 5 8 8 9 17 17 23 23 21 20 19 19 18 18 19
17 12 10 15 18 28 24 23 23 20 19 15 13 17 17 18 13 15 13 12 7 2 6 3 7 10 9 11 19 23 24 23 21 19 19 20 20 19
16 14 10 8 12 16 21 27 25 31 31 21 19 21 19 22 20 18 17 15 10 7 9 9 1 9 6 7 20 23 23 23 22 20 19 21 20 21
17 16 13 13 13 13 15 24 22 23 25 21 25 23 21 21 21 19 16 8 7 7 4 7 3 3 2 2 16 21 23 23 23 22 21 20 20 19
15 18 17 15 19 24 14 20 20 20 24 26 28 31 31 32 25 16 14 15 5 8 4 5 4 4 2 2 2 16 21 22 22 22 21 20 19 18
15 18 19 16 21 23 15 20 20 18 17 10 12 19 27 26 31 22 19 18 10 4 8 5 7 6 3 1 4 5 8 19 23 23 22 21 19 10
12 11 9 20 23 26 24 20 24 17 19 16 13 12 15 18 16 16 20 20 15 4 10 8 5 6 3 4 3 6 10 10 10 12 21 22 22 20
12 10 9 18 24 26 21 25 29 24 16 14 15 14 15 15 16 15 15 13 14 15 19 20 7 13 8 3 6 8 8 9 11 11 11 15 21 24
11 13 19 21 24 24 29 27 27 17 15 15 16 16 16 15 14 12 11 6 4 4 14 18 12 18 14 8 7 8 13 11 11 11 12 13 15 14
17 14 16 18 20 17 20 21 16 16 17 15 15 13 12 13 13 13 11 12 9 2 2 17 9 17 14 10 9 10 14 15 15 15 14 14 13 14
11 10 10 11 13 12 14 16 15 15 15 15 14 14 13 14 13 12 11 13 12 11 7 9 6 9 7 11 9 10 12 13 12 15 14 14 13 15
11 9 11 12 12 12 13 13 14 16 15 15 14 15 15 15 14 13 11 14 15 13 13 11 9 5 2 5 11 11 11 12 10 16 15 15 15 15
10 9 10 11 11 11 13 13 15 13 15 13 14 16 15 15 18 14 14 14 13 13 12 13 14 14 16 19 3 17 12 11 9 12 14 18 16 15
9 10 6 6 9 11 12 12 13 13 14 13 14 15 15 16 16 16 16 16 15 13 11 13 16 20 21 17 11 6 19 14 15 16 14 10 10 4
12 11 10 9 8 3 10 11 13 13 14 12 13 14 15 15 16 15 16 20 19 14 16 19 19 18 8 6 6 5 10 24 19 14 11 12 10 10
13 12 11 10 10 9 8 4 10 12 13 12 12 14 15 16 16 16 15 16 15 15 16 11 10 11 11 15 16 12 5 10 12 16 21 21 10 10
14 13 13 12 11 10 9 9 2 9 12 13 12 13 14 14 14 15 15 16 16 14 13 11 10 11 15 17 17 12 7 8 9 10 8 13 14 13
Wind_Direction
252 249 243 254 293 199 181 175 169 159 181 178 159 175 162 160 161 162 166 166 164 166 171 170 173 174 170 165 164 161 154 155 160 159 163 160 151 150
263 252 237 255 268 254 176 182 176 169 172 155 163 155 163 159 162 162 168 171 159 167 167 169 175 167 169 161 161 156 158 159 162 163 161 153 149 148
251 272 243 250 263 252 173 177 171 166 166 86 108 157 159 159 166 163 163 171 167 163 166 169 166 168 161 160 160 158 160 159 160 158 160 157 155 156
236 256 275 254 292 203 173 178 174 166 159 152 140 157 163 166 166 160 166 169 172 169 168 165 168 163 160 158 156 158 155 156 156 156 162 158 160 162
245 258 283 267 262 233 185 177 171 162 158 153 148 163 127 163 150 125 152 146 162 158 162 165 168 164 163 161 157 156 155 155 157 153 162 163 164 165
257 246 262 283 266 291 185 179 166 151 154 161 160 161 156 163 166 157 156 165 157 132 170 168 172 163 164 167 163 158 159 158 161 162 163 164 166 166
274 261 268 289 265 288 177 173 161 152 159 159 160 159 159 158 167 167 172 148 60 151 168 158 165 164 177 168 171 162 166 162 164 169 167 163 166 161
272 260 261 271 292 294 171 168 168 159 159 154 166 167 163 168 157 161 155 160 174 259 139 168 174 176 176 181 183 170 168 166 167 168 172 164 167 159
261 271 252 267 294 299 179 173 176 170 165 163 168 176 163 173 159 160 169 171 166 151 151 167 215 175 169 175 175 172 170 168 165 172 173 171 171 166
258 261 264 267 274 277 218 177 177 176 172 171 170 172 167 164 164 163 159 122 80 153 126 153 160 129 105 68 179 175 170 170 171 172 173 175 173 171
253 245 246 248 252 267 252 174 173 180 187 174 174 164 162 165 158 141 150 155 132 173 182 115 168 101 86 127 140 182 174 171 170 174 176 177 175 172
239 242 225 232 245 256 252 171 172 175 170 145 163 159 157 161 160 170 160 169 162 115 184 118 153 141 141 172 161 180 177 177 176 180 178 180 171 175
236 232 217 230 238 242 245 186 174 156 153 147 149 151 156 160 167 172 175 169 170 132 172 149 148 166 86 133 169 195 181 179 189 184 184 185 181 186
249 239 236 234 238 232 228 190 158 153 156 154 158 164 167 171 178 175 177 178 184 174 170 181 143 173 155 149 165 174 189 185 191 191 191 195 195 199
231 241 243 249 252 224 205 181 156 161 163 163 171 174 177 165 163 163 166 121 124 106 174 187 172 176 181 161 159 175 173 193 196 196 194 196 201 200
247 248 245 247 256 216 187 168 169 170 172 174 174 168 158 160 169 167 165 173 173 96 181 193 170 177 184 192 168 168 186 186 188 199 198 204 208 210
232 227 229 233 242 201 183 179 175 172 174 171 173 163 166 165 172 171 171 174 190 178 165 186 152 186 196 184 186 184 184 191 185 191 192 202 208 208
262 236 220 225 214 188 177 177 177 176 175 173 173 167 168 170 167 173 169 182 186 182 177 174 165 136 44 270 211 190 188 189 173 189 191 206 215 210
235 236 221 213 195 182 175 172 178 181 168 177 174 172 171 173 164 171 177 179 187 184 181 173 180 188 196 212 172 199 182 181 161 187 195 205 211 210
16 358 310 208 185 181 174 171 176 171 176 176 174 175 175 171 171 174 185 181 183 183 177 183 191 195 201 201 189 194 188 176 186 198 201 210 224 2
6 3 353 354 355 311 171 172 172 174 179 176 176 172 176 177 178 177 182 185 181 183 189 197 201 196 182 105 197 193 196 200 190 189 183 190 202 214
6 2 359 5 4 2 350 189 168 167 178 178 178 177 177 182 179 179 182 182 192 196 201 194 174 175 190 204 211 199 157 191 210 197 195 187 165 209
2 4 0 11 10 6 3 359 336 177 181 182 181 182 179 185 186 182 183 188 189 197 192 183 171 181 199 206 209 207 148 165 179 199 221 218 198 81